• In United Kingdom
  • List of Countries
  • For 7 days
  • Water Temperature
  • Satellite Maps
  • Weather Map
  • Weather Widgets
  • user-avatar
    Login

    Hourly Weather Lubango

    Today, 25 June, Monday

    Time Temperature Precipitation Wind Pressure Humidity
    00:00 +12°C° 0 mm 1 mps 609 mmHg 48%
    01:00 +11°C° 0 mm 1 mps 609 mmHg 47%
    02:00 +11°C° 0 mm 1 mps 608 mmHg 47%
    03:00 +11°C° 0 mm 1 mps 608 mmHg 46%
    04:00 +10°C° 0 mm 1 mps 608 mmHg 46%
    05:00 +10°C° 0 mm 1 mps 608 mmHg 46%
    06:00 +11°C° 0 mm 1 mps 608 mmHg 45%
    07:00 +11°C° 0 mm 1 mps 609 mmHg 43%
    08:00 +15°C° 0 mm 2 mps 610 mmHg 36%
    09:00 +18°C° 0 mm 2 mps 611 mmHg 30%
    10:00 +21°C° 0 mm 2 mps 613 mmHg 23%
    11:00 +24°C° 0 mm 2 mps 613 mmHg 21%
    12:00 +25°C° 0 mm 2 mps 613 mmHg 18%
    13:00 +26°C° 0 mm 2 mps 613 mmHg 16%
    14:00 +26°C° 0 mm 2 mps 612 mmHg 17%
    15:00 +25°C° 0 mm 2 mps 612 mmHg 17%
    16:00 +25°C° 0 mm 3 mps 611 mmHg 18%
    17:00 +20°C° 0 mm 2 mps 610 mmHg 25%
    18:00 +17°C° 0 mm 2 mps 609 mmHg 33%
    19:00 +14°C° 0 mm 1 mps 608 mmHg 40%
    20:00 +13°C° 0 mm 1 mps 608 mmHg 44%
    21:00 +13°C° 0 mm 1 mps 608 mmHg 47%
    22:00 +12°C° 0 mm 1 mps 609 mmHg 51%
    23:00 +12°C° 0 mm 1 mps 609 mmHg 51%

    Tomorrow, 26 June, Tuesday

    Time Temperature Precipitation Wind Pressure Humidity
    00:00 +11°C° 0 mm 1 mps 608 mmHg 50%
    01:00 +11°C° 0 mm 1 mps 608 mmHg 50%
    02:00 +11°C° 0 mm 1 mps 608 mmHg 49%
    03:00 +11°C° 0 mm 1 mps 608 mmHg 48%
    04:00 +11°C° 0 mm 1 mps 608 mmHg 47%
    05:00 +11°C° 0 mm 1 mps 608 mmHg 45%
    06:00 +11°C° 0 mm 1 mps 608 mmHg 43%
    07:00 +10°C° 0 mm 1 mps 608 mmHg 41%
    08:00 +14°C° 0 mm 2 mps 610 mmHg 34%
    09:00 +18°C° 0 mm 2 mps 612 mmHg 27%
    10:00 +23°C° 0 mm 2 mps 613 mmHg 19%
    11:00 +24°C° 0 mm 2 mps 613 mmHg 18%
    12:00 +25°C° 0 mm 2 mps 613 mmHg 16%
    13:00 +27°C° 0 mm 2 mps 613 mmHg 15%
    14:00 +26°C° 0 mm 2 mps 612 mmHg 15%
    15:00 +26°C° 0 mm 2 mps 612 mmHg 15%
    16:00 +26°C° 0 mm 2 mps 611 mmHg 15%
    17:00 +21°C° 0 mm 2 mps 611 mmHg 20%
    18:00 +18°C° 0 mm 2 mps 610 mmHg 24%
    19:00 +15°C° 0 mm 1 mps 609 mmHg 29%
    20:00 +14°C° 0 mm 1 mps 609 mmHg 32%
    21:00 +13°C° 0 mm 1 mps 609 mmHg 35%
    22:00 +12°C° 0 mm 1 mps 609 mmHg 37%
    23:00 +12°C° 0 mm 1 mps 609 mmHg 38%

    Day after tomorrow, 27 June, Wednesday

    Time Temperature Precipitation Wind Pressure Humidity
    00:00 +12°C° 0 mm 1 mps 609 mmHg 38%
    01:00 +12°C° 0 mm 1 mps 609 mmHg 38%
    02:00 +11°C° 0 mm 1 mps 609 mmHg 38%
    03:00 +10°C° 0 mm 2 mps 608 mmHg 37%
    04:00 +10°C° 0 mm 2 mps 608 mmHg 37%
    05:00 +10°C° 0 mm 2 mps 608 mmHg 37%
    06:00 +10°C° 0 mm 2 mps 609 mmHg 37%
    07:00 +10°C° 0 mm 2 mps 609 mmHg 38%
    08:00 +14°C° 0 mm 3 mps 610 mmHg 32%
    09:00 +18°C° 0 mm 4 mps 612 mmHg 26%
    10:00 +22°C° 0 mm 4 mps 613 mmHg 20%
    11:00 +23°C° 0 mm 4 mps 613 mmHg 18%
    12:00 +26°C° 0 mm 4 mps 613 mmHg 17%
    13:00 +27°C° 0 mm 3 mps 613 mmHg 15%
    14:00 +27°C° 0 mm 3 mps 612 mmHg 15%
    15:00 +27°C° 0 mm 3 mps 612 mmHg 15%
    16:00 +27°C° 0 mm 3 mps 611 mmHg 15%
    17:00 +23°C° 0 mm 2 mps 610 mmHg 20%
    18:00 +19°C° 0 mm 2 mps 609 mmHg 25%
    19:00 +16°C° 0 mm 1 mps 608 mmHg 29%
    20:00 +15°C° 0 mm 1 mps 609 mmHg 30%
    21:00 +15°C° 0 mm 2 mps 609 mmHg 30%
    22:00 +14°C° 0 mm 2 mps 609 mmHg 31%
    23:00 +14°C° 0 mm 2 mps 609 mmHg 31%

    28 June, Thursday

    Time Temperature Precipitation Wind Pressure Humidity
    00:00 +13°C° 0 mm 2 mps 609 mmHg 31%
    01:00 +13°C° 0 mm 2 mps 609 mmHg 31%
    02:00 +13°C° 0 mm 2 mps 608 mmHg 32%
    03:00 +11°C° 0 mm 3 mps 608 mmHg 33%
    04:00 +11°C° 0 mm 3 mps 608 mmHg 34%
    05:00 +11°C° 0 mm 3 mps 608 mmHg 35%
    06:00 +11°C° 0 mm 3 mps 608 mmHg 36%
    07:00 +11°C° 0 mm 3 mps 608 mmHg 37%
    08:00 +14°C° 0 mm 3 mps 610 mmHg 32%
    09:00 +19°C° 0 mm 4 mps 611 mmHg 26%
    10:00 +22°C° 0 mm 5 mps 613 mmHg 21%
    11:00 +25°C° 0 mm 4 mps 613 mmHg 19%
    12:00 +26°C° 0 mm 3 mps 613 mmHg 17%
    13:00 +27°C° 0 mm 3 mps 613 mmHg 15%
    14:00 +27°C° 0 mm 3 mps 612 mmHg 15%
    15:00 +27°C° 0 mm 3 mps 612 mmHg 15%
    16:00 +27°C° 0 mm 2 mps 611 mmHg 14%
    17:00 +23°C° 0 mm 2 mps 611 mmHg 20%
    18:00 +20°C° 0 mm 1 mps 610 mmHg 26%
    19:00 +15°C° 0 mm 1 mps 609 mmHg 32%
    20:00 +15°C° 0 mm 1 mps 609 mmHg 33%
    21:00 +14°C° 0 mm 1 mps 609 mmHg 33%
    22:00 +13°C° 0 mm 1 mps 609 mmHg 34%
    23:00 +13°C° 0 mm 2 mps 609 mmHg 33%

    29 June, Friday

    Time Temperature Precipitation Wind Pressure Humidity
    00:00 +13°C° 0 mm 2 mps 608 mmHg 32%
    01:00 +12°C° 0 mm 2 mps 608 mmHg 32%
    02:00 +12°C° 0 mm 2 mps 608 mmHg 32%
    03:00 +12°C° 0 mm 2 mps 608 mmHg 33%
    04:00 +10°C° 0 mm 2 mps 607 mmHg 34%
    05:00 +10°C° 0 mm 2 mps 608 mmHg 35%
    06:00 +10°C° 0 mm 2 mps 608 mmHg 36%
    07:00 +10°C° 0 mm 2 mps 608 mmHg 36%
    08:00 +14°C° 0 mm 3 mps 610 mmHg 31%
    09:00 +18°C° 0 mm 3 mps 611 mmHg 25%
    10:00 +22°C° 0 mm 4 mps 613 mmHg 20%
    11:00 +24°C° 0 mm 3 mps 613 mmHg 18%
    12:00 +26°C° 0 mm 3 mps 612 mmHg 16%
    13:00 +27°C° 0 mm 2 mps 612 mmHg 14%
    14:00 +27°C° 0 mm 2 mps 612 mmHg 14%
    15:00 +27°C° 0 mm 2 mps 611 mmHg 13%
    16:00 +26°C° 0 mm 2 mps 611 mmHg 13%
    17:00 +23°C° 0 mm 2 mps 610 mmHg 19%
    18:00 +19°C° 0 mm 1 mps 609 mmHg 25%
    19:00 +15°C° 0 mm 1 mps 608 mmHg 31%
    20:00 +14°C° 0 mm 1 mps 609 mmHg 34%
    21:00 +13°C° 0 mm 1 mps 609 mmHg 36%
    22:00 +13°C° 0 mm 1 mps 609 mmHg 38%
    23:00 +12°C° 0 mm 1 mps 608 mmHg 37%

    30 June, Saturday

    Time Temperature Precipitation Wind Pressure Humidity
    00:00 +12°C° 0 mm 2 mps 608 mmHg 35%
    01:00 +10°C° 0 mm 2 mps 608 mmHg 34%
    02:00 +10°C° 0 mm 2 mps 608 mmHg 34%
    03:00 +10°C° 0 mm 2 mps 607 mmHg 34%
    04:00 +10°C° 0 mm 2 mps 607 mmHg 33%
    05:00 +10°C° 0 mm 2 mps 607 mmHg 33%
    06:00 +10°C° 0 mm 2 mps 608 mmHg 34%
    07:00 +10°C° 0 mm 2 mps 608 mmHg 34%
    08:00 +14°C° 0 mm 3 mps 609 mmHg 29%
    09:00 +18°C° 0 mm 3 mps 611 mmHg 24%
    10:00 +22°C° 0 mm 4 mps 612 mmHg 18%
    11:00 +23°C° 0 mm 4 mps 612 mmHg 17%
    12:00 +25°C° 0 mm 3 mps 612 mmHg 15%
    13:00 +27°C° 0 mm 3 mps 612 mmHg 13%
    14:00 +27°C° 0 mm 3 mps 612 mmHg 13%
    15:00 +26°C° 0 mm 2 mps 611 mmHg 14%
    16:00 +26°C° 0 mm 2 mps 611 mmHg 14%
    17:00 +23°C° 0 mm 2 mps 610 mmHg 20%
    18:00 +19°C° 0 mm 2 mps 609 mmHg 26%
    19:00 +15°C° 0 mm 1 mps 608 mmHg 33%
    20:00 +14°C° 0 mm 1 mps 608 mmHg 35%
    21:00 +14°C° 0 mm 1 mps 608 mmHg 38%
    22:00 +13°C° 0 mm 1 mps 609 mmHg 40%
    23:00 +12°C° 0 mm 1 mps 608 mmHg 40%
    Show more